Regional Weather Roundup
Issued by NWS

Home | Current Version | Previous Version | Graphics & Text | Print | Product List | Glossary On
Versions: 1 2 3 4 5 6 7 8 9 10 11 12 13 14 15 16 17 18 19 20 21 22 23 24 25 26 27 28 29 30 31 32 33 34 35 36 37 38 39 40 41 42 43 44 45 46 47 48 49 50
000
ASUS45 KCYS 021510
RWRWY

WYOMING REGIONAL WEATHER ROUNDUP
NATIONAL WEATHER SERVICE CHEYENNE WY
900 AM MDT TUE SEP 02 2014

NOTE:  "FAIR" INDICATES FEW OR NO CLOUDS BELOW 12,000 FEET
WITH NO SIGNIFICANT WEATHER AND/OR OBSTRUCTIONS TO VISIBILITY.

WYZ001-021600-
YELLOWSTONE NATIONAL PARK

CITY           SKY/WX    TMP DP  RH WIND       PRES   REMARKS
LK YELLOWSTONE   N/A     46  38  73 CALM      30.20S
W YELLOWSTONE  NOT AVBL

$$
WYZ002>013-054>058-071-098>099-021600-
NORTHERN WYOMING

CITY           SKY/WX    TMP DP  RH WIND       PRES   REMARKS
JACKSON        SUNNY     43  37  81 CALM      30.17S
CODY             N/A    N/A N/A N/A MISG        N/A
GREYBULL       SUNNY    N/A N/A N/A MISG      29.98S
WORLAND        SUNNY     56  44  64 W5        29.98S
SHERIDAN       MOSUNNY   56  45  66 N7        29.94S
BUFFALO        SUNNY     64  42  44 CALM      29.99R
GILLETTE       SUNNY     61  45  55 S12       29.97R
HULETT         FAIR      64  41  42 MISG      29.98
NEWCASTLE      FAIR      61  37  41 SE7       30.02

$$
WYZ014>020-022>026-101>103-021600-
CENTRAL WYOMING

CITY           SKY/WX    TMP DP  RH WIND       PRES   REMARKS
BIG PINEY      SUNNY     45  34  65 CALM      30.22F
PINEDALE       SUNNY     45  34  65 CALM      30.23S
DUBOIS         FAIR      52  32  46 N12       30.14S
LANDER         SUNNY     57  38  48 CALM      30.06S
RIVERTON       SUNNY     57  29  34 SW8       30.07S
CASPER         SUNNY     62  35  36 SW13      30.06F
DOUGLAS        SUNNY     53  46  77 NW3       30.06F

$$
WYZ021-027>030-104>119-021600-
SOUTHERN WYOMING

CITY           SKY/WX    TMP DP  RH WIND       PRES   REMARKS
EVANSTON       SUNNY     55  29  36 CALM      30.20F
KEMMERER       SUNNY     48  36  61 N6        30.22S
FORT BRIDGER   FAIR      53  32  44 N3        30.24S
ROCK SPRINGS   SUNNY     56  34  43 CALM      30.21R
DIXON            N/A     53  38  57 E6        30.24F
RAWLINS        SUNNY     60  32  34 SW9       30.19S
SARATOGA       FAIR      55  36  47 SE10      30.23S
LARAMIE        SUNNY     54  39  57 SE6       30.20R
CHEYENNE       SUNNY     61  41  47 SW12      30.15S
TORRINGTON     SUNNY     58  50  75 S7        30.04F
PINE BLUFFS    FAIR      59  48  67 SW6       30.12S

$$



USA.gov is the U.S. government's official web portal to all federal, state and local government web resources and services.